IRIDIUM 33 DEB

Satellite information

Favourite Embed

Satellite Type and Status

DEBRISIN ORBIT

Key statistics

Satellite IRIDIUM 33 DEB at a glance.

Uptime

10158

Days in orbit

Revolutions

≈ 14.5

Per day

Orbit

LEO

Low Earth Orbit

Inclination

86.3

Latest

Satellite identification and parameters

Extended collection of information and parameters for IRIDIUM 33 DEB.

Object identification

Identified? True

Debris? True

Object name: IRIDIUM 33 DEB

International designator: 1997-051VM

Object number (NORAD): 36080

Object ID (CCSDS): 36080

Country: UNITED STATES OF AMERICA (US)

Current information (Y/N): Y

RCS size: SMALL

Orbital parameters

Period: 99.61 minutes

Inclination: 86.3185 deg

SMA: 7118.071 km

Apoapsis: 751.863 km

Periapsis: 728.009 km

RAAN: 78.2041 deg

Eccentricy: 0.0016756

Argument of periapsis: 347.503 deg

Mean anomaly: 12.5754 deg

Mean motion: 14.45637027 rev/day

Mean motion (dot): 0.00001441 rev/day2

B* drag term: 0.00040158 1/REarth

Two-line elements (TLE)

Creation date: July 4, 2025, 6:39 p.m.

Reference frame: TEME

Reference center: EARTH

Epoch: July 4, 2025, 10:30 a.m. UTC

TLE line 0: 0 IRIDIUM 33 DEB

TLE line 1: 1 36080U 97051VM 25185.43806173 .00001441 00000-0 40158-3 0 9993

TLE line 2: 2 36080 86.3185 78.2041 0016756 347.5030 12.5754 14.45637027450832

Live tracking on map

Real-time ground track for satellite IRIDIUM 33 DEB.

In-orbit conjunctions

A list of the most updated potential collisions computed for object IRIDIUM 33 DEB.

Target Orbit TCA Probability of collision Miss distance Type
COSMOS 2251 DEB LEO 2025-01-13 08:48:04 0.0004239396 68.0 (m) DEBRIS
COSMOS 2251 DEB LEO 2024-09-28 05:16:57 0.0003442063 797.0 (m) DEBRIS
FENGYUN 1C DEB SSO 2024-09-27 09:28:38 0.000123018 836.0 (m) DEBRIS

Associated space launch

Iridium provides global mobile telecommunications services using a constellation of 66 low earth orbit satellites in a 86.4° inclined orbit. Although 77 satellites were originally envisioned for the system and spawned the name based on the 77th element in the periodic table, the system has been scaled back. Motorola's Satellite Communications Group designed and manufactured the Iridium satellites with Lockheed Martin providing the LM-700A spacecraft buses.

IRIDIUM 33 DEB was lifted into orbit during the mission ‘Proton-K/17S40 | Iridium 27 to 33’, on board a Proton-K/17S40 space rocket.

The launch took place on Sept. 14, 1997, 1:36 a.m. from 81/23 (81L).

For more information about the launch, click the button.

Launch to space Proton-K/17S40 | Iridium 27 to 33
Proton-K/17S40 | Iridium 27 to 33

Agency: N/A

Status: Launch Successful

Launch date: Sept. 14, 1997, 1:36 a.m. UTC

Rocket: Proton-K/17S40

Launch pad: 81/23 (81L)

Location: Baikonur Cosmodrome, Republic of Kazakhstan

...

Latest news about this satellite

There are no fresh news available about this satellite. Check back as we update our databases every day.


Newsletter sign-up

Weekly statistics, charts and insights to help you stay on top of the space industry.